Regional Weather Roundup
Issued by NWS

Home | Current Version | Previous Version | Text Only | Print | Product List | Glossary On
Versions: 1 2 3 4 5 6 7 8 9 10 11 12 13 14 15 16 17 18 19 20 21 22 23 24 25 26 27 28 29 30 31 32 33 34 35 36 37 38 39 40 41 42 43 44 45 46 47 48 49 50
000
ASUS43 KDMX 210507
RWRIA

WEATHER ROUNDUP FOR IOWA
NATIONAL WEATHER SERVICE DES MOINES IA
1100 PM CST SAT DEC 20 2014

NOTE: "FAIR" INDICATES FEW OR NO CLOUDS BELOW 12,000 FEET WITH NO
SIGNIFICANT WEATHER AND/OR OBSTRUCTIONS TO VISIBILITY.

* - THESE STATIONS ARE NOT NWS STATIONS...THUS NOT UNDER NWS
QUALITY CONTROL.  THEY ALSO DO NOT REPORT WEATHER SUCH
AS PRECIPITATION OR FOG.

IAZ001>003-012>014-020>022-031>034-043>046-210600-
   NORTHWEST IOWA

CITY           SKY/WX    TMP DP  RH WIND       PRES   REMARKS
CARROLL *      FOG       32  32 100 S8        30.04F VSB 1   WCI  25
CHEROKEE *     CLOUDY    32  32 100 S10       30.03R FOG     WCI  24
DENISON *      CLOUDY    32  32 100 CALM      30.02S FOG
LE MARS *      CLOUDY    32  32 100 S10G18    30.01F FOG     WCI  24
ORANGE CITY *  FOG       32  30  93 S13       29.99F VSB 3/4 WCI  22
SHELDON *      CLOUDY    30  30 100 S10G18    29.99S FOG     WCI  21
SIOUX CITY     CLOUDY    33  31  92 S9        30.02F FOG     WCI  25
SPENCER        CLOUDY    32  29  88 S14       30.02S WCI  22
STORM LAKE *   FOG       30  32 100 S15       30.02S VSB 1   WCI  19
$$

IAZ055>058-069>071-079>083-090>094-210600-
   SOUTHWEST IOWA

CITY           SKY/WX    TMP DP  RH WIND       PRES   REMARKS
ATLANTIC *     CLOUDY    34  34 100 S7        30.04S FOG     WCI  28
AUDUBON *      FOG       34  28  80 S6        30.04F VSB 1/2 WCI  29
CLARINDA *     CLOUDY    37  37 100 S8        30.07F FOG     WCI  31
COUNCIL BLFS * FOG       34  34 100 SE8       30.02S VSB<1/4 WCI  27
CRESTON *      FOG       36  36 100 S10       30.06F VSB 3/4 WCI  28
HARLAN  *      MIX PCPN  32  32 100 S6        30.07S VSB 1   WCI  26
LAMONI         CLOUDY    37  36  96 S12       30.09F FOG     WCI  29
RED OAK *      CLOUDY    36  36 100 S6        30.04F FOG     WCI  31
SHENANDOAH *   CLOUDY    36  36 100 SE13      30.05S FOG     WCI  27
$$

IAZ047>049-059>061-072>074-084-210600-
   CENTRAL IOWA

CITY           SKY/WX    TMP DP  RH WIND       PRES   REMARKS
AMES           CLOUDY    33  32  96 SE7       30.09S FOG     WCI  27
ANKENY *       CLOUDY    36  36 100 S8        30.09F FOG     WCI  29
CHARITON *     CLOUDY    37  37 100 S10       30.10F FOG     WCI  30
DES MOINES     CLOUDY    36  34  92 SE9       30.09F FOG     WCI  29
GRINNELL*      FOG       34  34 100 SE7       30.11F VSB 1/4 WCI  28
KNOXVILLE *    CLOUDY    36  36 100 S8        30.10S FOG     WCI  29
MARSHALLTOWN   FOG       33  33 100 SE9       30.10F VSB 3/4 WCI  25
PELLA *        CLOUDY    35  35  99 SE7       30.13F FOG     WCI  29
PERRY *        CLOUDY    34  34 100 SE7       30.07S FOG     WCI  28
$$

IAZ004>006-015-016-023>025-035-036-210600-
   NORTH CENTRAL IOWA

CITY           SKY/WX    TMP DP  RH WIND       PRES   REMARKS
ALGONA *       CLOUDY    34  32  93 S17       30.04F WCI  23
CLARION *      CLOUDY    32  32 100 S15       30.07S FOG     WCI  22
ESTHERVILLE    CLOUDY    31  29  92 S15       30.01F WCI  20
FORT DODGE *   CLOUDY    34  28  80 S10       30.06F WCI  26
MASON CITY     FOG       32  31  96 SE14      30.08F VSB 1/4 WCI  22
FOREST CITY *  CLOUDY    32  32 100 S9        30.06S FOG     WCI  24
IOWA FALLS *   CLOUDY    32  32 100 SE9       30.09F FOG     WCI  24
$$

IAZ007>011-017>019-026>030-037>042-050>054-066-210600-
   NORTHEAST IOWA

CITY           SKY/WX    TMP DP  RH WIND       PRES   REMARKS
CEDAR RAPIDS   FOG       33  33 100 S7        30.14F VSB 1/4 WCI  27
CHARLES CITY * FOG       32  32 100 SE10      30.10F VSB 0   WCI  24
CLINTON *      CLOUDY    32  28  86 SE7       30.22F WCI  26
DECORAH *      CLOUDY    30  30 100 VRB7G14   30.11F FOG     WCI  23
DUBUQUE        CLOUDY    30  29  96 S7        30.17S FOG     WCI  23
MONTICELLO *   CLOUDY    32  32 100 SE8       30.16F FOG     WCI  25
OELWEIN *      FOG       32  32 100 SE10      30.13F VSB 0   WCI  24
WATERLOO       FOG       32  32 100 SE8       30.12F VSB 1/2 WCI  25
$$

IAZ064-065-067-068-078-210600-
   EAST CENTRAL IOWA

CITY           SKY/WX    TMP DP  RH WIND       PRES   REMARKS
DAVENPORT      CLOUDY    33  30  88 SE8       30.19F FOG     WCI  26
IOWA CITY      CLOUDY    34  33  96 SE7       30.18S FOG     WCI  28
MT. PLEASANT * CLOUDY    34  34 100 S7        30.17S FOG     WCI  28
MUSCATINE *    CLOUDY    36  34  93 S7        30.19S FOG     WCI  30
QUAD CITIES    CLOUDY    33  30  88 S9        30.19F FOG     WCI  25
$$

IAZ062-063-075>077-085>089-095>099-210600-
   SOUTHEAST IOWA

CITY           SKY/WX    TMP DP  RH WIND       PRES   REMARKS
BURLINGTON     LGT RAIN  36  34  92 S6        30.18F FOG     WCI  31
FAIRFIELD *    CLOUDY    36  34  93 SE7       30.16S FOG     WCI  30
FORT MADISON * CLOUDY    37  37 100 S5        30.19F FOG     WCI  34
KEOKUK *       CLOUDY    37  36  93 S7        30.18F WCI  32
OSKALOOSA *    FOG       34  34 100 SE8       30.13F VSB 1/2 WCI  27
CENTERVILLE *  CLOUDY    37  37 100 S10       30.14S WCI  30
OTTUMWA        CLOUDY    36  34  92 S9        30.13F FOG     WCI  29
WASHINGTON *   CLOUDY    36  36 100 S7        30.16S FOG     WCI  30
$$

ABBREVIATIONS USED IN REMARKS
   TC - TEMPERATURES IN CELSIUS
  WCI - WIND CHILL INDEX
   HX - HEAT INDEX
  VSB - VISIBILITY
$$




USA.gov is the U.S. government's official web portal to all federal, state and local government web resources and services.